Regional Weather Roundup
Issued by NWS

Home | Current Version | Previous Version | Graphics & Text | Print | Product List | Glossary On
Versions: 1 2 3 4 5 6 7 8 9 10 11 12 13 14 15 16 17 18 19 20 21 22 23 24 25 26 27 28 29 30 31 32 33 34 35 36 37 38 39 40 41 42 43 44 45 46 47 48 49 50
184
ASUS44 KJAN 300710
RWRMS

MISSISSIPPI HOURLY WEATHER ROUNDUP
NATIONAL WEATHER SERVICE JACKSON MS
200 AM CDT MON MAR 30 2015

NOTE: "FAIR: INDICATES FEW OR NO CLOUDS BELOW 12,000 FEET WITH NO
SIGNIFICANT WEATHER AND/OR OBSTRUCTIONS TO VISIBILITY.

MSZ001>002-007>008-010>013-018>021-025>028-034>036-300800-
NORTHWEST MISSISSIPPI

CITY           SKY/WX    TMP DP  RH WIND       PRES   REMARKS
CLARKSDALE     CLOUDY    64  61  88 W13       30.07R
CLEVELAND      PTSUNNY   65  60  82 SW14      30.08R
GREENWOOD      PTCLDY    68  55  63 SW17G29   30.08S
GREENVILLE     MOCLDY    67  57  70 SW20      30.07R
OLIVE BRANCH   CLOUDY    57  57 100 CALM      30.08R
OXFORD         FAIR      59  57  94 SW12      30.06F THUNDER
TUNICA         PTSUNNY   57  54  88 N5        30.08R
$$

MSZ003>006-009-014>017-022>024-029>033-037>039-300800-
NORTHEAST MISSISSIPPI

CITY           SKY/WX    TMP DP  RH WIND       PRES   REMARKS
COLUMBUS AFB   MOCLDY    63  56  78 SW15G22   30.08S
CORINTH        RAIN      55  54  94 SW6       30.06F
GOLDN TRIANGLE MOCLDY    63  55  77 S13       30.10S
STARKVILLE     FAIR      63  57  82 SW10G16   30.09F
TUPELO         TSTM      63  55  75 W10G21    30.05S
$$

MSZ040-058-300800-
CENTRAL MISSISSIPPI

CITY           SKY/WX    TMP DP  RH WIND       PRES   REMARKS
JACKSON INTL   CLEAR     62  58  86 S12       30.15F
JACKSON HAWKNS CLEAR     63  58  83 S9        30.15F
MERIDIAN KEY   CLOUDY    63  58  83 S15       30.16F
MERIDIAN NAS   NOT AVBL
RAYMOND        FAIR      64  59  82 S10       30.14F
VICKSBURG      CLEAR     66  58  75 SW8       30.15F
$$

MSZ059>079-300800-
SOUTH MISSISSIPPI

CITY           SKY/WX    TMP DP  RH WIND       PRES   REMARKS
BROOKHAVEN       N/A     63  59  88 SW3       30.21S
HATTIESBURG    PTCLDY    57  56  96 CALM      30.20S FOG
MCCOMB         CLOUDY    63  58  83 CALM      30.20R
NATCHEZ        MOCLDY    64  59  82 SW5       30.20S
PINE BELT      PTCLDY    55  52  88 CALM      30.21S
$$

MSZ080>082-300800-
COASTAL MISSISSIPPI

CITY           SKY/WX    TMP DP  RH WIND       PRES   REMARKS
BILOXI         CLEAR     67  64  91 SW13      30.18F
PASCAGOULA     CLEAR     66  61  84 S10       30.19F
GULFPORT       CLEAR     67  62  84 S9        30.18F
$$



USA.gov is the U.S. government's official web portal to all federal, state and local government web resources and services.